Location: Ceske Budejovice
(48.9830°N, 14.4670°E)
Time: 20:07:20
(UTC+02:00)

DX 1 - Visible Passes

Search period start: 20 August 2019 00:00
Search period end: 30 August 2019 00:00
Orbit: 619 x 631 km, 98.4° (Epoch: 20 August)

Date Brightness Start Highest point End Pass type
(mag) Time Alt. Az. Time Alt. Az. Time Alt. Az.
20 Aug ? 03:07:03 10° ESE 03:10:01 18° ENE 03:12:59 10° NNE visible
20 Aug ? 04:41:30 10° S 04:45:45 59° WSW 04:50:04 10° NNW visible
21 Aug ? 03:25:06 10° ESE 03:28:42 26° ENE 03:32:17 10° N visible
21 Aug ? 05:00:39 10° SSW 05:04:41 39° W 05:08:46 10° NNW visible
22 Aug ? 03:43:26 10° SE 03:47:25 37° ENE 03:51:25 10° N visible
22 Aug ? 05:20:02 10° SSW 05:23:40 26° W 05:27:19 10° NW visible
23 Aug ? 04:01:58 10° SSE 04:06:11 55° ENE 04:10:26 10° N visible
24 Aug ? 02:47:48 10° E 02:49:32 12° NE 02:51:17 10° NNE visible
24 Aug ? 04:20:41 10° SSE 04:25:00 84° ENE 04:29:22 10° NNW visible
25 Aug ? 03:05:20 10° E 03:08:10 17° ENE 03:11:00 10° NNE visible
25 Aug ? 04:39:35 10° S 04:43:52 64° WSW 04:48:11 10° NNW visible
26 Aug ? 03:23:21 10° ESE 03:26:49 24° ENE 03:30:20 10° N visible
26 Aug ? 04:58:41 10° S 05:02:47 42° W 05:06:56 10° NNW visible
27 Aug ? 03:41:38 10° SE 03:45:32 35° ENE 03:49:30 10° N visible
27 Aug ? 05:18:01 10° SSW 05:21:45 28° W 05:25:30 10° NW visible
28 Aug ? 04:00:07 10° SE 04:04:18 51° ENE 04:08:32 10° N visible
28 Aug ? 05:37:41 10° SW 05:40:46 19° W 05:43:52 10° NW visible
29 Aug ? 02:46:15 10° ENE 02:47:42 12° NE 02:49:10 10° NE visible
29 Aug ? 04:18:48 10° SSE 04:23:07 78° ENE 04:27:29 10° NNW visible
